Location: Courcelles
(49.2596°N, 1.7419°E)
Time: 06:54:13
(UTC+00:00)

Cosmos 1484 Rocket - Pass Details

Date: 17 November 2025
Orbit: 443 x 473 km, 97.6° (Epoch: 06 December)

Event Time Altitude Azimuth Distance (km) Brightness Sun altitude
Rises 16:58:02 0° 180° (S) 2,498 6.5 -8.1°
Reaches altitude 10° 17:00:07 10° 187° (S) 1,631 5.6 -8.5°
Maximum altitude 17:03:30 44° 261° (W) 663 3.9 -9.0°
Drops below altitude 10° 17:06:55 10° 335° (NNW) 1,657 5.4 -9.5°
Sets 17:09:04 0° 342° (NNW) 2,543 6.2 -9.8°
